Preview of NWS' New Version of Forecast
This preview is not operational and should not be used for support decisions.

Regional Weather Roundup (RWR)

Issued by Gray - Portland, ME (GYX)

                            
000
ASUS41 KGYX 260205
RWRGYX
WEATHER ROUNDUP FOR MAINE AND NEW HAMPSHIRE
NATIONAL WEATHER SERVICE GRAY ME
1000 PM EDT TUE JUN 25 2019

MEZ002-005-006-010-012-015-018-020-021-024-026-027-029-260300-
MAINE
  
CITY           SKY/WX    TMP DP  RH WIND       PRES   REMARKS
PORTLAND       CLOUDY    62  60  93 S8        29.93R FOG              
SANFORD        CLOUDY    65  64  97 S3        29.93R                  
BAR HARBOR     LGT RAIN  59  53  80 SE7       30.02R                  
WISCASSET      CLOUDY    60  59  96 VRB3      29.96S                  
ROCKLAND       LGT RAIN  57  55  93 SE8       29.98S FOG              
FRYEBURG       CLOUDY    61  60  97 CALM      29.94R                  
LEWISTONAUBURN LGT RAIN  61  61 100 NW3       29.94R                  
AUGUSTA        LGT RAIN  59  59 100 SE8       29.95S                  
WATERVILLE     LGT RAIN  59  58  96 CALM      29.94R                  
BANGOR         LGT RAIN  58  56  93 SE7       29.99R                  
GREENVILLE       N/A     54  53  97 SE8       29.96R                  
MILLINOCKET    LGT RAIN  61  50  67 CALM      30.00R                  
HOULTON        MOCLDY    63  42  46 S5        29.98R                  
PRESQUE ISLE   LGT RAIN  62  49  62 S6        29.98R                  
FRENCHVILLE    CLOUDY    69  43  38 S14       29.94R                  
CARIBOU        LGT RAIN  65  48  54 S9        29.96R                  
$$

NHZ002-005-008-009-011-012-014-260300-
NEW HAMPSHIRE
  
CITY           SKY/WX    TMP DP  RH WIND       PRES   REMARKS
PORTSMOUTH     DRIZZLE   64  64 100 SE7       29.90R FOG              
ROCHESTER      CLOUDY    66  64  93 S3        29.91R                  
NASHUA         CLOUDY    69  69 100 CALM      29.91R                  
MANCHESTER     CLOUDY    70  68  93 S5        29.89R                  
CONCORD        CLOUDY    66  65  96 NW3       29.91R FOG              
LACONIA        CLOUDY    63  63 100 CALM      29.93R                  
PLYMOUTH       CLOUDY    63  62  95 CALM      29.93R                  
BERLIN         CLOUDY    62  59  90 CALM      29.93R                  
WHITEFIELD     CLOUDY    61  59  93 CALM      29.93R                  
JAFFREY        FAIR      67  64  90 CALM      29.92R                  
KEENE          CLOUDY    67  67 100 CALM      29.90R                  
LEBANON        CLOUDY    67  63  87 CALM      29.90R                  
MT WASHINGTON  FOG       50  50 100 NW23        N/A  VSB 1/16         
$$

VTZ005-007-008-260300-
VERMONT
  
CITY           SKY/WX    TMP DP  RH WIND       PRES   REMARKS
ST JOHNSBURY     N/A     65  64  97 MISG      29.90R                  
MONTPELIER     CLOUDY    65  64  97 S3        29.95R                  
BURLINGTON     FAIR      69  64  84 SE3       29.86R                  
$$

MAZ007-012-024-CTZ003-RIZ002-NYZ038-NYZ072-260300-
SOUTHERN NEW ENGLAND AND NY
  
CITY           SKY/WX    TMP DP  RH WIND       PRES   REMARKS
BOSTON         LGT RAIN  70  66  87 S7        29.90R                  
WORCESTER      CLOUDY    65  65 100 SW6       29.93R                  
NANTUCKET      CLOUDY    64  62  93 SE12      29.93F                  
PROVIDENCE     DRIZZLE   67  67 100 S6        29.90S FOG              
HARTFORD       CLOUDY    71  68  90 S5        29.88R                  
ALBANY         FAIR      72  60  66 NW5       29.88R                  
NEW YORK CITY  FAIR      79  69  71 E6        29.86R                  
$$

ANZ081-ANZ082-ANZ150-NHZ014-MEZ023>029-260300-
COASTAL MARINE OBSERVATIONS
  
STATION/POSITION TIME  TEMP    WIND        PRES    WAVE
                       AIR SEA DIR/SP/G            HT/PER
                 (UTC) (F)     (DEG/KT/KT) (MB)    (FT/S)
ISLE OF SHOALS   0100   62     160/ 19/ 20 1011.9S
JEFFREYS LEDGE   0138      58                N/A     3/ 5
CASHES LEDGE BUO 0150   58 56  140/ 14/ 16 1015.0R   2/ 5
GEORGES BANK BUO 0140   59 56  120/  8/ 10 1018.6R
$$

.............KEY..............
   WCI - WIND CHILL
   TC  - TEMPERATURE IN CELSIUS
   VSB - VISIBILITY IN MILES
   HX  - HEAT INDEX
   FAIR- INDICATES FEW OR NO CLOUDS BELOW 12,000 FT, WITH NO 
         SIGNIFICANT WEATHER AND/OR OBSTRUCTIONS TO VISIBILITY.